Vertical_Velocity
0 0 -3 1 -5 1 0 -1 2 -3 -4 -0 -5 -1 -1 1 1 -2 -1 1 0 -1 2 -1 -2 -1 -3
-1 1 -1 -1 -0 -6 1 -1 0 -1 0 -1 -2 -3 -2 -2 -2 -2 -1 0 0 -0 -1 -1 -0 0 -0
-2 2 0 -0 -1 1 1 -1 -1 4 -4 0 -1 -1 -1 -2 -2 -1 -1 -1 -1 -1 -2 1 1 -1 -1
-1 -2 -0 2 -2 0 -1 1 4 3 -4 -1 -1 -0 -2 -1 -1 -1 -1 0 1 0 0 2 -1 -1 -1
0 -2 -3 1 2 -2 0 2 2 0 -2 -2 -0 -1 -1 1 -0 0 -0 -0 -0 -1 0 -0 0 0 0
2 0 1 1 -2 1 -1 1 0 -1 -2 -0 -1 1 -1 -0 -0 -0 -1 -1 0 1 0 -0 -1 -1 -1
0 2 1 0 2 1 1 3 -2 -1 -1 -0 -1 -1 -1 -0 -1 -2 -2 -0 0 -0 -1 -2 -1 -0 0
-2 2 -2 -0 1 0 2 -1 -1 -1 1 -1 -1 -1 -0 -0 -1 -2 -1 -0 0 -1 -1 -1 -2 -2 -2
2 1 -0 -1 2 1 0 -2 -0 0 -0 -1 -0 -1 0 0 -2 -1 -1 -1 -0 -0 -0 0 -0 -0 1
0 1 -2 -0 0 1 -4 1 3 -1 0 -0 -1 -1 0 -1 -1 -1 -0 -1 -1 -1 -0 -1 -1 -1 -1
1 0 -1 1 1 -2 0 -0 -1 1 1 -1 -1 0 -0 -1 -1 -1 -1 -1 -0 -1 -1 -1 0 -2 -3
-0 0 0 0 -2 1 1 -1 0 0 -0 -1 0 0 0 1 0 -1 0 -1 -1 -2 -2 -0 -1 -1 -2
0 1 1 -2 -1 1 -1 -1 -0 1 -1 -2 1 1 -0 0 0 0 -0 -0 -1 -1 -1 -1 -1 -1 -1
1 -1 -2 -1 1 1 1 -1 -1 -0 -2 -1 0 0 1 0 -1 2 1 -0 -0 -1 -2 1 -0 -2 -1
0 -1 -1 1 1 -0 1 -1 -2 0 -1 -2 -1 -0 -1 -1 -2 1 1 -1 0 -2 -4 -1 1 -0 -1
-1 -1 -0 1 2 0 -1 -0 -0 1 -1 -1 -1 -1 -1 0 -2 -0 -1 -0 -0 -1 -1 -3 2 3 -1
-1 -0 1 0 -1 0 -1 -1 -0 1 1 0 -1 -1 -1 -2 -0 -2 -0 -1 -1 -0 -1 -6 -5 4 -2
Height
1518 1517 1518 1518 1519 1520 1518 1518 1518 1517 1518 1518 1519 1521 1521 1522 1524 1526 1527 1528 1530 1531 1532 1533 1534 1534 1534
1513 1514 1514 1514 1514 1517 1517 1517 1516 1516 1516 1515 1517 1518 1519 1520 1522 1524 1525 1527 1527 1528 1529 1530 1530 1530 1531
1508 1509 1510 1511 1511 1513 1514 1513 1514 1514 1514 1514 1515 1516 1517 1518 1520 1521 1522 1523 1525 1525 1526 1526 1527 1528 1529
1503 1506 1507 1508 1508 1511 1512 1513 1509 1512 1512 1513 1513 1513 1515 1516 1517 1518 1519 1520 1521 1522 1522 1523 1524 1524 1525
1499 1501 1504 1505 1506 1508 1508 1509 1507 1509 1510 1510 1511 1511 1512 1513 1514 1514 1515 1516 1517 1518 1519 1519 1520 1521 1522
1498 1499 1500 1502 1504 1504 1506 1506 1505 1506 1508 1508 1509 1509 1510 1510 1511 1511 1512 1513 1514 1515 1515 1516 1516 1517 1518
1496 1497 1497 1500 1502 1501 1503 1503 1503 1505 1506 1506 1507 1507 1508 1509 1509 1509 1510 1511 1511 1512 1513 1514 1514 1515 1516
1493 1493 1495 1497 1499 1499 1501 1501 1502 1503 1504 1504 1505 1505 1506 1507 1507 1508 1508 1509 1509 1510 1511 1512 1512 1513 1514
1491 1490 1493 1494 1496 1497 1498 1500 1501 1501 1502 1502 1503 1503 1504 1504 1505 1505 1506 1507 1507 1508 1509 1510 1510 1511 1511
1488 1489 1491 1493 1494 1495 1497 1498 1499 1499 1500 1501 1500 1502 1502 1501 1502 1503 1503 1504 1505 1505 1506 1507 1507 1507 1508
1487 1488 1490 1491 1493 1494 1495 1496 1497 1497 1498 1498 1498 1499 1499 1499 1500 1500 1501 1501 1501 1501 1502 1503 1503 1503 1503
1486 1487 1488 1490 1491 1492 1493 1494 1494 1495 1495 1495 1495 1496 1496 1496 1497 1497 1497 1496 1497 1497 1498 1498 1498 1498 1498
1484 1485 1487 1488 1489 1490 1491 1491 1492 1491 1491 1492 1492 1492 1492 1492 1493 1493 1493 1493 1492 1493 1493 1493 1493 1493 1493
1482 1483 1484 1485 1486 1487 1487 1488 1488 1488 1488 1488 1488 1488 1488 1487 1487 1488 1488 1489 1488 1489 1489 1489 1488 1488 1488
1478 1479 1481 1482 1483 1483 1484 1484 1485 1485 1484 1484 1484 1484 1483 1483 1482 1483 1483 1483 1484 1484 1484 1484 1484 1483 1483
1474 1475 1476 1477 1478 1478 1479 1479 1480 1481 1481 1481 1480 1479 1479 1479 1479 1478 1478 1478 1478 1478 1478 1478 1479 1478 1478
1468 1469 1471 1472 1472 1473 1473 1474 1475 1476 1477 1476 1477 1476 1475 1473 1475 1474 1474 1474 1474 1474 1473 1473 1472 1472 1471